Time,TemperatureF,DewpointF,PressureIn,WindDirection,WindDirectionDegrees,WindSpeedMPH,WindSpeedGustMPH,Humidity,HourlyPrecipIn,Conditions,Clouds,dailyrainin,SoftwareType,DateUTC
2013-04-09 00:13:00,70.1,64.0,29.60,South,177,6.0,21.0,81,0.00,,,0.00,weatherlink.com 1.10,2013-04-09 05:13:00,
2013-04-09 00:28:00,69.7,64.0,29.60,SSE,150,14.0,19.0,81,0.00,,,0.00,weatherlink.com 1.10,2013-04-09 05:28:00,
2013-04-09 00:43:00,69.9,64.0,29.60,SSE,158,5.0,21.0,81,0.00,,,0.00,weatherlink.com 1.10,2013-04-09 05:43:00,
2013-04-09 00:58:00,70.3,64.0,29.60,SE,145,13.0,21.0,79,0.00,,,0.00,weatherlink.com 1.10,2013-04-09 05:58:00,
2013-04-09 01:13:00,70.6,63.0,29.60,SE,132,17.0,22.0,78,0.00,,,0.00,weatherlink.com 1.10,2013-04-09 06:13:00,
2013-04-09 01:28:00,70.6,63.0,29.60,SE,145,11.0,25.0,77,0.00,,,0.00,weatherlink.com 1.10,2013-04-09 06:28:00,
2013-04-09 01:43:00,70.4,63.0,29.60,SSE,157,4.0,24.0,77,0.00,,,0.00,weatherlink.com 1.10,2013-04-09 06:43:00,
2013-04-09 01:58:00,70.1,63.0,29.60,SE,140,14.0,22.0,77,0.00,,,0.00,weatherlink.com 1.10,2013-04-09 06:58:00,
2013-04-09 02:13:00,69.9,63.0,29.59,SE,145,13.0,20.0,78,0.00,,,0.00,weatherlink.com 1.10,2013-04-09 07:13:00,
2013-04-09 02:28:00,69.5,62.0,29.59,SE,134,12.0,24.0,78,0.00,,,0.00,weatherlink.com 1.10,2013-04-09 07:28:00,
2013-04-09 02:43:00,69.3,63.0,29.59,SSE,154,12.0,18.0,79,0.00,,,0.00,weatherlink.com 1.10,2013-04-09 07:43:00,
2013-04-09 02:58:00,69.0,63.0,29.58,SE,144,16.0,17.0,80,0.00,,,0.00,weatherlink.com 1.10,2013-04-09 07:58:00,
2013-04-09 03:13:00,68.8,63.0,29.58,SSE,148,12.0,18.0,81,0.00,,,0.00,weatherlink.com 1.10,2013-04-09 08:13:00,
2013-04-09 03:28:00,68.6,63.0,29.58,SE,128,7.0,22.0,81,0.00,,,0.00,weatherlink.com 1.10,2013-04-09 08:28:00,
2013-04-09 03:43:00,68.5,63.0,29.58,SE,143,6.0,23.0,81,0.00,,,0.00,weatherlink.com 1.10,2013-04-09 08:43:00,
2013-04-09 03:58:00,68.3,63.0,29.58,SE,136,5.0,16.0,82,0.00,,,0.00,weatherlink.com 1.10,2013-04-09 08:58:00,
2013-04-09 04:13:00,68.3,63.0,29.57,SE,124,9.0,20.0,83,0.00,,,0.00,weatherlink.com 1.10,2013-04-09 09:13:00,
2013-04-09 04:28:00,68.3,63.0,29.58,SE,140,6.0,16.0,83,0.00,,,0.00,weatherlink.com 1.10,2013-04-09 09:28:00,
2013-04-09 04:43:00,68.3,63.0,29.58,SE,134,13.0,17.0,84,0.00,,,0.00,weatherlink.com 1.10,2013-04-09 09:43:00,
2013-04-09 04:58:00,68.2,63.0,29.58,SE,138,12.0,17.0,84,0.00,,,0.00,weatherlink.com 1.10,2013-04-09 09:58:00,
2013-04-09 05:13:00,68.5,64.0,29.58,SSE,155,1.0,22.0,85,0.00,,,0.00,weatherlink.com 1.10,2013-04-09 10:13:00,
2013-04-09 05:28:00,68.4,64.0,29.58,SSE,148,6.0,20.0,85,0.00,,,0.00,weatherlink.com 1.10,2013-04-09 10:28:00,
2013-04-09 05:43:00,68.6,64.0,29.59,SSE,152,4.0,18.0,85,0.00,,,0.00,weatherlink.com 1.10,2013-04-09 10:43:00,
2013-04-09 05:58:00,68.9,64.0,29.59,SE,146,8.0,23.0,84,0.00,,,0.00,weatherlink.com 1.10,2013-04-09 10:58:00,
2013-04-09 06:13:00,69.1,64.0,29.59,South,176,4.0,18.0,84,0.00,,,0.00,weatherlink.com 1.10,2013-04-09 11:13:00,
2013-04-09 06:28:00,69.2,64.0,29.59,SSE,167,0.0,18.0,83,0.00,,,0.00,weatherlink.com 1.10,2013-04-09 11:28:00,
2013-04-09 06:43:00,69.2,64.0,29.60,SE,145,6.0,22.0,83,0.00,,,0.00,weatherlink.com 1.10,2013-04-09 11:43:00,
2013-04-09 06:58:00,69.2,64.0,29.60,SSE,165,6.0,19.0,83,0.00,,,0.00,weatherlink.com 1.10,2013-04-09 11:58:00,
2013-04-09 07:13:00,69.3,64.0,29.61,SSW,196,9.0,17.0,83,0.00,,,0.00,weatherlink.com 1.10,2013-04-09 12:13:00,
2013-04-09 07:28:00,69.5,64.0,29.61,South,186,5.0,18.0,82,0.00,,,0.00,weatherlink.com 1.10,2013-04-09 12:28:00,
2013-04-09 07:43:00,69.5,64.0,29.62,SE,143,6.0,15.0,82,0.00,,,0.00,weatherlink.com 1.10,2013-04-09 12:43:00,
2013-04-09 08:28:00,69.8,64.0,29.61,SSE,150,6.0,18.0,82,0.00,,,0.00,weatherlink.com 1.10,2013-04-09 13:28:00,
2013-04-09 08:58:00,70.2,64.0,29.59,SSE,153,19.0,26.0,81,0.00,,,0.00,weatherlink.com 1.10,2013-04-09 13:58:00,
2013-04-09 09:59:00,71.1,65.0,29.59,SSE,155,13.0,22.0,80,0.00,,,0.00,weatherlink.com 1.10,2013-04-09 14:59:00,
2013-04-09 10:14:00,71.5,65.0,29.59,SSE,163,9.0,28.0,79,0.00,,,0.00,weatherlink.com 1.10,2013-04-09 15:14:00,
2013-04-09 10:29:00,71.9,65.0,29.59,SSE,148,11.0,23.0,78,0.00,,,0.00,weatherlink.com 1.10,2013-04-09 15:29:00,
2013-04-09 10:44:00,72.2,65.0,29.60,SSE,163,14.0,23.0,77,0.00,,,0.00,weatherlink.com 1.10,2013-04-09 15:44:00,
2013-04-09 11:14:00,72.4,64.0,29.61,South,169,5.0,22.0,76,0.00,,,0.00,weatherlink.com 1.10,2013-04-09 16:14:00,
2013-04-09 11:29:00,72.6,65.0,29.62,SSE,158,21.0,25.0,76,0.00,,,0.00,weatherlink.com 1.10,2013-04-09 16:29:00,
2013-04-09 11:44:00,73.0,65.0,29.62,SSE,158,5.0,22.0,75,0.00,,,0.00,weatherlink.com 1.10,2013-04-09 16:44:00,
2013-04-09 11:59:00,73.8,65.0,29.63,SSW,192,16.0,21.0,74,0.00,,,0.00,weatherlink.com 1.10,2013-04-09 16:59:00,
2013-04-09 12:14:00,74.7,65.0,29.62,SSE,166,10.0,26.0,71,0.00,,,0.00,weatherlink.com 1.10,2013-04-09 17:14:00,
2013-04-09 12:29:00,75.2,65.0,29.62,South,180,20.0,26.0,70,0.00,,,0.00,weatherlink.com 1.10,2013-04-09 17:29:00,
2013-04-09 12:44:00,75.5,65.0,29.62,SSW,202,3.0,20.0,71,0.00,,,0.00,weatherlink.com 1.10,2013-04-09 17:44:00,
2013-04-09 12:59:00,75.3,65.0,29.62,South,190,9.0,25.0,70,0.00,,,0.00,weatherlink.com 1.10,2013-04-09 17:59:00,
2013-04-09 13:14:00,75.3,65.0,29.61,SSE,161,5.0,28.0,71,0.00,,,0.00,weatherlink.com 1.10,2013-04-09 18:14:00,
2013-04-09 13:29:00,74.8,65.0,29.61,South,184,2.0,29.0,71,0.00,,,0.00,weatherlink.com 1.10,2013-04-09 18:29:00,
2013-04-09 13:44:00,75.3,65.0,29.60,South,179,10.0,23.0,71,0.00,,,0.00,weatherlink.com 1.10,2013-04-09 18:44:00,
2013-04-09 13:59:00,77.0,65.0,29.60,SSE,156,1.0,27.0,67,0.00,,,0.00,weatherlink.com 1.10,2013-04-09 18:59:00,
2013-04-09 14:14:00,76.6,66.0,29.59,SSW,209,5.0,29.0,69,0.00,,,0.00,weatherlink.com 1.10,2013-04-09 19:14:00,
2013-04-09 14:29:00,77.0,66.0,29.59,SSE,148,5.0,31.0,68,0.00,,,0.00,weatherlink.com 1.10,2013-04-09 19:29:00,
2013-04-09 14:44:00,77.6,66.0,29.59,South,171,7.0,29.0,68,0.00,,,0.00,weatherlink.com 1.10,2013-04-09 19:44:00,
2013-04-09 14:59:00,77.5,66.0,29.60,SSE,164,8.0,29.0,68,0.00,,,0.00,weatherlink.com 1.10,2013-04-09 19:59:00,
2013-04-09 15:29:00,76.4,66.0,29.60,SSE,159,8.0,30.0,70,0.00,,,0.00,weatherlink.com 1.10,2013-04-09 20:29:00,
2013-04-09 15:44:00,76.3,66.0,29.60,SE,140,18.0,27.0,71,0.00,,,0.00,weatherlink.com 1.10,2013-04-09 20:44:00,
2013-04-09 15:59:00,75.8,67.0,29.60,SSE,159,9.0,27.0,73,0.00,,,0.00,weatherlink.com 1.10,2013-04-09 20:59:00,
2013-04-09 16:29:00,76.7,67.0,29.57,SE,139,12.0,34.0,71,0.00,,,0.00,weatherlink.com 1.10,2013-04-09 21:29:00,
2013-04-09 16:44:00,77.5,67.0,29.56,SSE,162,10.0,29.0,70,0.00,,,0.00,weatherlink.com 1.10,2013-04-09 21:44:00,
2013-04-09 16:59:00,78.1,67.0,29.56,SE,141,25.0,35.0,69,0.00,,,0.00,weatherlink.com 1.10,2013-04-09 21:59:00,
2013-04-09 17:14:00,78.8,66.0,29.57,SSE,149,16.0,24.0,66,0.00,,,0.00,weatherlink.com 1.10,2013-04-09 22:14:00,
2013-04-09 17:29:00,78.2,66.0,29.57,SE,133,11.0,26.0,66,0.00,,,0.00,weatherlink.com 1.10,2013-04-09 22:29:00,
2013-04-09 17:44:00,78.2,66.0,29.57,South,190,16.0,24.0,66,0.00,,,0.00,weatherlink.com 1.10,2013-04-09 22:44:00,
2013-04-09 17:59:00,78.9,66.0,29.57,SSW,196,7.0,28.0,65,0.00,,,0.00,weatherlink.com 1.10,2013-04-09 22:59:00,
2013-04-09 18:14:00,79.0,66.0,29.57,SSE,153,20.0,25.0,65,0.00,,,0.00,weatherlink.com 1.10,2013-04-09 23:14:00,
2013-04-09 18:29:00,77.8,66.0,29.56,SE,143,6.0,25.0,66,0.00,,,0.00,weatherlink.com 1.10,2013-04-09 23:29:00,
2013-04-09 18:44:00,77.3,65.0,29.56,SE,140,17.0,23.0,67,0.00,,,0.00,weatherlink.com 1.10,2013-04-09 23:44:00,
2013-04-09 18:59:00,77.0,66.0,29.57,SE,134,10.0,19.0,68,0.00,,,0.00,weatherlink.com 1.10,2013-04-09 23:59:00,
2013-04-09 19:14:00,76.5,65.0,29.58,SSE,155,4.0,19.0,68,0.00,,,0.00,weatherlink.com 1.10,2013-04-10 00:14:00,
2013-04-09 19:29:00,75.9,65.0,29.58,ESE,121,3.0,15.0,70,0.00,,,0.00,weatherlink.com 1.10,2013-04-10 00:29:00,
2013-04-09 19:44:00,75.8,65.0,29.59,SE,126,6.0,15.0,70,0.00,,,0.00,weatherlink.com 1.10,2013-04-10 00:44:00,
2013-04-09 19:59:00,75.1,66.0,29.60,ESE,123,8.0,14.0,72,0.00,,,0.00,weatherlink.com 1.10,2013-04-10 00:59:00,
2013-04-09 20:14:00,74.4,65.0,29.61,SE,127,7.0,13.0,73,0.00,,,0.00,weatherlink.com 1.10,2013-04-10 01:14:00,
2013-04-09 20:29:00,74.4,65.0,29.60,ESE,121,13.0,14.0,73,0.00,,,0.00,weatherlink.com 1.10,2013-04-10 01:29:00,
2013-04-09 20:44:00,74.3,65.0,29.59,ESE,109,11.0,17.0,73,0.00,,,0.00,weatherlink.com 1.10,2013-04-10 01:44:00,
2013-04-09 20:59:00,74.2,65.0,29.59,ESE,109,13.0,17.0,73,0.00,,,0.00,weatherlink.com 1.10,2013-04-10 01:59:00,
2013-04-09 21:14:00,74.1,65.0,29.59,ESE,123,7.0,17.0,73,0.00,,,0.00,weatherlink.com 1.10,2013-04-10 02:14:00,
2013-04-09 21:29:00,73.7,65.0,29.61,ESE,117,3.0,16.0,74,0.00,,,0.00,weatherlink.com 1.10,2013-04-10 02:29:00,
2013-04-09 21:44:00,73.7,65.0,29.64,SE,133,0.0,9.0,74,0.00,,,0.00,weatherlink.com 1.10,2013-04-10 02:44:00,
2013-04-09 21:59:00,73.5,65.0,29.66,NW,315,2.0,4.0,75,0.00,,,0.00,weatherlink.com 1.10,2013-04-10 02:59:00,
2013-04-09 22:14:00,61.7,51.0,29.70,WNW,288,15.0,19.0,67,0.00,,,0.00,weatherlink.com 1.10,2013-04-10 03:14:00,
2013-04-09 22:30:00,54.5,46.0,29.71,NNW,346,18.0,25.0,72,0.00,,,0.00,weatherlink.com 1.10,2013-04-10 03:30:00,
2013-04-09 22:45:00,52.3,44.0,29.70,North,355,15.0,22.0,73,0.00,,,0.00,weatherlink.com 1.10,2013-04-10 03:45:00,
2013-04-09 23:00:00,51.5,43.0,29.75,WNW,302,12.0,20.0,74,0.00,,,0.00,weatherlink.com 1.10,2013-04-10 04:00:00,
2013-04-09 23:15:00,49.5,42.0,29.70,NNE,22,12.0,19.0,75,0.00,,,0.00,weatherlink.com 1.10,2013-04-10 04:15:00,
2013-04-09 23:30:00,49.2,42.0,29.72,NNW,337,9.0,16.0,77,0.00,,,0.00,weatherlink.com 1.10,2013-04-10 04:30:00,
2013-04-09 23:45:00,48.4,41.0,29.72,NNW,344,12.0,17.0,76,0.00,,,0.00,weatherlink.com 1.10,2013-04-10 04:45:00,